Location: Moscow
(38.8570°N, 84.2291°W)
Time: 15:34:17
(UTC+00:00)

OAO 2 Rocket - Pass Details

Date: 15 November 2025
Orbit: 669 x 734 km, 35.0° (Epoch: 06 December)

Event Time Altitude Azimuth Distance (km) Brightness Sun altitude
Rises 22:44:48 0° 249° (WSW) 3,034 9.8 -4.8°
Reaches altitude 10° 22:47:13 10° 244° (WSW) 2,129 7.7 -5.2°
Maximum altitude 22:52:02 49° 170° (S) 892 4.0 -6.1°
Drops below altitude 10° 22:56:57 10° 96° (E) 2,176 5.3 -7.0°
Enters shadow 22:57:46 - 94° (E) 2,477 5.6 -7.2°
